Temperature
7 7 7 7 7 7 7 6 6 6 6 6 6 6 6 6 6 6 6 6 5 5 5 5 5 5 5 5 4 5 5 4 4 4 4 4 4 4 4 4 4 4 4
7 6 7 7 7 7 7 6 6 6 6 6 6 6 6 6 6 6 6 6 5 5 5 5 5 5 5 4 4 4 4 4 4 4 4 4 4 4 4 4 4 4 4
6 6 6 6 6 6 6 6 6 6 6 6 6 6 6 6 6 6 5 5 5 5 5 5 5 4 4 4 4 4 4 4 4 4 4 4 4 4 4 4 4 4 3
6 6 6 6 6 6 6 6 6 6 6 5 5 5 5 5 5 5 5 5 5 5 4 4 4 4 4 4 4 4 4 4 3 3 3 3 4 3 3 3 3 3 3
6 6 6 6 6 6 6 6 5 5 5 5 5 5 5 5 5 5 5 5 5 4 4 4 4 4 4 4 3 3 3 3 3 3 3 3 3 3 3 3 3 3 3
6 6 6 5 5 5 5 5 5 5 5 5 5 5 5 5 5 5 5 4 4 4 4 4 4 4 3 3 3 3 3 3 3 3 3 3 3 2 2 2 2 2 2
5 5 5 5 5 5 5 5 5 5 5 4 4 5 5 5 4 4 4 4 4 4 4 4 3 3 3 3 3 3 3 3 3 3 2 2 2 2 2 2 2 1 1
5 5 5 5 5 5 5 5 5 5 4 4 4 4 4 4 4 4 4 4 4 4 3 3 3 3 3 3 3 3 3 2 2 2 2 2 2 2 2 1 1 1 1
5 5 5 5 5 5 5 4 4 4 4 4 4 4 4 4 4 4 4 4 3 3 3 3 3 3 3 2 3 3 2 2 2 2 2 2 2 1 1 1 1 1 0
4 5 4 4 4 4 4 4 4 4 4 4 4 4 4 4 4 3 3 3 3 3 3 2 2 2 2 2 2 2 2 2 2 2 2 2 1 1 1 1 0 0 -0
4 4 4 4 4 4 4 4 4 4 4 3 3 3 3 3 3 3 3 3 3 2 2 2 2 2 2 2 2 2 2 2 2 2 1 1 1 1 0 0 -0 -0 -1
3 4 4 3 3 3 3 3 3 3 3 3 3 3 3 3 2 2 2 2 2 2 2 2 2 1 1 1 1 1 1 1 1 1 1 1 0 0 -0 -0 -1 -1 -1
3 3 3 3 3 3 3 3 3 3 2 2 2 2 2 2 2 2 2 2 2 2 1 1 1 1 1 1 1 1 1 1 1 1 0 0 -0 -0 -1 -1 -1 -1 -1
3 3 3 3 2 2 2 2 2 2 2 2 2 2 2 2 2 2 2 1 1 1 1 1 1 1 1 1 1 1 1 0 0 -0 -0 -1 -1 -1 -1 -1 -1 -1 -2
2 2 2 2 2 2 2 2 2 1 1 1 1 1 1 1 1 1 1 1 1 1 1 1 1 1 1 0 0 0 0 -0 -0 -1 -1 -1 -1 -1 -1 -2 -2 -2 -2
1 1 1 1 1 1 1 1 1 1 1 1 1 1 1 1 1 1 1 1 0 0 0 0 0 -0 -0 -0 -0 -0 -1 -1 -1 -1 -1 -2 -2 -2 -2 -2 -2 -2 -2
1 1 1 1 1 1 1 1 1 0 0 0 0 -0 -0 -0 0 0 0 -0 -0 -0 -0 -0 -0 -0 -1 -1 -1 -1 -1 -1 -1 -2 -2 -2 -2 -2 -2 -2 -2 -2 -2
0 0 0 0 0 0 0 0 -0 -0 -0 -0 -0 -1 -1 -1 -1 -0 -0 -0 -0 -0 -0 -1 -1 -1 -1 -1 -1 -1 -1 -2 -2 -2 -2 -2 -3 -3 -2 -2 -3 -3 -3
-0 -0 -0 -0 -0 -0 -0 -0 -1 -1 -1 -1 -1 -1 -1 -1 -1 -1 -1 -1 -1 -1 -1 -1 -1 -1 -1 -2 -2 -2 -2 -2 -2 -2 -3 -3 -3 -3 -3 -3 -3 -3 -3
-0 -1 -1 -1 -1 -1 -1 -1 -1 -1 -1 -1 -1 -1 -1 -1 -1 -1 -1 -1 -1 -1 -1 -1 -2 -2 -2 -2 -2 -2 -2 -2 -3 -3 -3 -3 -3 -3 -3 -3 -3 -3 -3
-1 -1 -1 -1 -1 -1 -1 -2 -2 -2 -2 -2 -2 -2 -2 -2 -2 -2 -2 -2 -2 -2 -2 -2 -2 -2 -2 -2 -2 -3 -3 -3 -3 -3 -3 -3 -3 -3 -3 -3 -3 -3 -4
-1 -1 -1 -1 -2 -2 -2 -2 -2 -2 -2 -2 -2 -2 -2 -2 -2 -2 -2 -2 -2 -2 -2 -2 -3 -3 -3 -3 -3 -3 -3 -3 -3 -3 -3 -3 -3 -4 -4 -4 -4 -4 -4
-2 -2 -2 -2 -2 -2 -2 -3 -3 -2 -2 -2 -2 -3 -3 -3 -3 -3 -3 -3 -3 -3 -3 -3 -3 -3 -3 -3 -3 -3 -3 -3 -3 -3 -3 -4 -4 -4 -4 -4 -4 -4 -4
-2 -2 -3 -3 -3 -3 -3 -3 -3 -3 -3 -3 -3 -3 -3 -3 -3 -3 -3 -3 -3 -3 -3 -3 -3 -3 -3 -3 -3 -4 -4 -4 -4 -4 -4 -4 -4 -4 -4 -4 -4 -4 -4
-3 -3 -3 -3 -3 -3 -3 -3 -4 -4 -4 -4 -4 -4 -4 -4 -4 -4 -4 -4 -4 -4 -4 -4 -4 -4 -4 -4 -4 -4 -4 -4 -4 -4 -4 -4 -4 -4 -4 -4 -4 -4 -4
-4 -4 -4 -4 -4 -4 -4 -4 -4 -4 -4 -4 -4 -4 -4 -4 -4 -4 -4 -4 -4 -4 -4 -4 -4 -4 -4 -4 -4 -4 -4 -4 -4 -4 -4 -4 -4 -4 -4 -4 -4 -4 -4
Wind_Speed
2 2 2 2 2 1 2 2 2 2 1 2 2 2 2 2 2 3 3 3 3 3 3 3 3 2 2 2 1 1 2 2 4 5 3 3 4 4 4 5 6 6 7
2 2 2 2 1 1 2 2 2 1 1 2 2 2 2 2 2 2 3 2 2 3 3 2 2 2 1 1 1 1 2 2 3 4 4 3 4 4 4 5 5 7 6
1 1 1 1 1 2 2 2 2 1 1 1 1 2 2 2 1 2 2 2 2 2 2 2 2 1 1 1 1 1 1 2 2 2 4 4 3 3 4 5 6 5 7
1 1 1 1 1 2 1 1 1 1 1 1 1 2 2 2 1 1 1 1 1 1 1 1 1 2 2 1 1 1 1 1 1 1 3 4 3 3 3 4 5 5 6
1 1 1 1 1 0 1 1 0 1 1 1 1 1 2 2 1 1 1 0 1 1 1 0 0 1 1 1 1 1 0 1 1 1 2 3 3 3 3 3 5 5 5
1 1 1 1 1 0 0 0 0 1 1 0 1 1 1 2 3 2 1 1 1 1 1 1 1 1 1 2 2 2 1 1 1 2 2 2 3 3 3 4 4 5 5
1 1 0 1 1 1 0 0 0 1 1 0 1 1 1 2 2 2 2 2 1 1 1 1 1 1 2 2 3 4 4 4 3 1 1 2 3 3 3 3 4 4 5
1 1 0 0 1 1 0 0 0 0 1 1 1 1 1 2 3 2 3 2 2 2 1 1 2 1 1 2 3 3 4 4 4 2 1 2 2 3 2 2 3 4 4
2 2 1 0 1 1 1 0 1 1 1 1 1 1 1 2 3 3 3 2 2 2 2 3 2 2 3 3 3 3 3 4 5 6 5 5 6 7 6 3 3 3 4
2 2 2 1 1 1 1 1 1 1 1 1 2 1 1 1 3 4 4 2 3 2 3 3 4 4 3 4 3 2 2 2 3 4 5 5 5 6 8 4 2 3 3
2 2 2 2 1 2 2 2 2 2 2 2 2 2 2 3 3 5 5 3 2 2 3 2 3 5 5 6 4 2 2 2 2 3 3 3 4 4 4 4 3 2 2
3 3 3 3 2 3 3 3 3 3 2 2 3 3 3 3 3 4 6 5 4 3 2 2 3 5 6 6 5 4 4 4 2 3 3 3 3 4 4 4 4 3 2
3 3 3 3 3 3 3 3 3 3 2 2 2 2 3 3 3 5 5 6 6 4 3 4 5 5 6 5 5 5 4 3 2 3 2 2 2 3 3 3 3 3 4
3 3 3 3 3 3 3 3 2 2 2 2 2 2 2 3 3 3 3 3 4 4 3 4 5 6 5 5 4 4 3 2 2 1 1 2 2 3 3 3 3 3 3
3 3 3 3 3 3 3 3 3 2 2 2 1 1 2 2 3 4 3 2 2 3 3 2 3 3 4 3 3 3 2 2 2 2 2 2 2 3 3 3 3 3 3
3 3 3 3 3 3 4 4 6 5 7 6 6 4 3 4 5 5 5 5 5 5 4 3 3 2 2 2 2 2 2 2 2 2 2 2 2 2 3 3 3 3 3
4 4 3 3 3 3 3 3 3 5 7 8 8 8 7 7 7 6 5 5 6 5 4 2 2 1 2 2 2 1 2 2 2 2 2 2 2 2 2 3 3 3 3
4 4 4 3 3 3 3 3 3 3 3 4 5 7 7 7 7 7 6 5 4 4 3 2 1 1 1 1 1 1 1 2 2 2 1 1 1 2 2 2 2 3 3
4 3 3 3 3 3 3 3 3 3 3 3 3 4 6 6 6 7 6 3 2 2 2 2 1 1 1 1 1 1 1 1 1 1 1 1 1 1 2 2 2 3 3
3 4 4 3 3 3 3 3 3 3 3 2 3 3 3 4 4 4 3 3 2 2 2 2 2 2 1 1 1 1 1 1 1 1 1 1 1 1 2 2 2 2 2
2 3 4 3 3 3 3 3 2 2 2 2 2 3 4 2 2 2 2 2 2 2 2 2 2 2 2 2 2 1 1 1 1 1 1 1 1 1 2 2 2 2 2
2 2 2 3 3 3 2 2 2 2 2 2 2 3 4 3 2 2 2 2 2 2 2 2 2 2 2 2 2 2 2 2 1 1 1 1 1 1 1 1 2 2 2
3 3 3 3 2 3 3 2 2 2 2 2 2 2 2 2 2 2 2 2 2 2 3 2 2 2 3 2 2 2 2 2 2 2 2 1 1 1 1 1 2 2 1
3 3 3 2 2 2 2 2 2 2 1 2 2 2 2 2 2 3 3 2 3 3 3 3 3 3 3 3 3 3 3 3 3 2 2 2 2 1 1 1 1 2 1
2 2 2 2 2 2 2 2 2 2 2 2 2 2 2 2 3 3 3 3 3 3 4 4 4 4 4 4 4 3 4 4 4 3 2 2 2 2 1 1 1 1 1
2 2 2 2 2 1 1 1 1 1 2 2 2 2 2 2 3 3 3 3 3 4 4 4 4 5 5 5 4 4 4 4 4 4 2 1 2 2 2 1 1 1 0
Wind_Direction
204 212 219 227 223 229 242 256 249 251 254 264 272 271 269 258 250 242 241 237 229 233 234 229 245 259 258 259 264 266 262 250 267 290 302 317 318 317 322 325 320 315 311
214 219 211 217 213 234 255 263 260 247 252 253 271 281 281 281 265 241 253 249 237 237 234 225 240 250 261 261 252 271 271 264 258 282 301 313 316 317 328 328 333 332 330
205 216 214 211 221 244 256 261 262 243 259 266 276 280 295 297 279 250 254 250 239 241 230 214 224 218 251 253 269 284 300 310 292 276 300 315 323 337 344 340 342 343 338
216 213 213 226 244 250 259 262 262 246 238 244 266 277 287 297 290 278 267 266 270 253 223 202 215 214 220 214 255 280 318 338 337 321 311 315 324 336 348 340 334 337 334
283 222 225 233 248 282 282 265 264 253 262 244 276 296 302 297 292 300 266 53 61 63 71 79 303 288 272 281 259 243 290 305 315 304 306 318 324 338 332 326 326 327 330
312 261 217 192 198 189 247 259 310 315 316 281 272 292 315 313 327 358 34 113 97 86 67 62 37 62 40 0 344 334 303 284 278 291 303 314 319 323 328 331 329 329 326
325 320 218 187 178 178 229 107 290 311 326 338 314 304 305 324 2 41 45 78 94 101 104 88 50 41 28 53 26 22 16 3 340 304 296 307 311 321 322 328 330 325 311
348 334 317 149 142 135 104 62 326 343 346 344 325 325 356 2 28 42 43 69 82 75 75 84 86 69 49 60 57 40 28 17 11 18 33 4 0 355 344 320 314 324 321
24 17 12 53 136 140 121 316 306 329 352 7 15 10 24 16 40 54 57 92 77 60 54 58 69 80 52 49 61 52 33 23 31 41 39 37 24 14 5 1 351 345 332
10 6 4 9 103 119 119 51 24 25 14 39 27 14 34 49 45 60 66 90 77 59 49 52 48 52 46 37 53 67 46 9 22 26 29 28 26 18 12 10 348 333 320
9 23 21 22 76 84 81 64 56 54 51 46 39 26 36 43 46 54 57 75 84 70 56 44 43 44 37 35 35 48 54 20 24 33 34 27 21 16 13 20 16 353 324
34 46 45 40 55 66 78 65 56 60 55 51 48 32 29 35 46 57 55 52 56 77 67 52 51 44 38 37 38 47 41 28 39 45 38 20 10 5 0 9 13 11 348
45 50 52 51 58 69 83 75 57 56 56 53 55 47 33 33 43 52 55 48 42 55 68 61 53 44 36 39 43 40 33 40 46 44 29 9 1 352 353 354 354 355 352
56 52 52 60 60 59 66 74 71 60 60 59 56 55 42 37 43 49 58 58 52 53 59 54 46 43 41 38 33 35 40 52 54 46 18 3 358 1 2 355 347 342 356
57 56 55 58 68 63 60 61 69 64 77 76 69 92 82 48 26 36 53 59 63 71 65 54 43 38 36 32 31 32 33 36 31 25 25 17 8 5 2 359 357 356 1
59 55 56 57 61 71 71 60 54 59 57 55 55 59 58 50 47 53 56 60 64 72 73 72 50 38 37 33 27 18 19 24 20 25 32 24 9 359 355 359 3 8 3
60 56 52 53 59 64 72 77 62 48 54 56 53 52 54 54 56 54 56 63 62 62 65 64 49 32 24 21 16 12 4 2 13 27 27 16 8 357 354 356 359 2 356
57 59 59 58 59 60 59 64 71 68 50 40 40 45 46 48 50 49 46 55 52 45 47 46 30 14 11 7 1 359 3 11 18 16 14 5 357 354 355 354 357 350 348
57 58 56 57 59 60 58 58 58 61 61 48 37 31 34 38 44 42 45 51 52 33 22 12 5 356 352 351 354 356 4 6 360 2 357 337 334 343 342 339 344 345 349
56 62 63 63 63 62 59 60 57 54 53 50 40 25 21 32 37 28 29 28 28 11 359 349 345 343 341 333 334 341 350 350 343 333 322 323 326 324 319 322 334 341 340
56 54 55 61 63 62 61 60 56 54 47 39 26 14 25 37 29 15 10 1 353 342 333 329 327 326 329 329 328 328 313 309 302 290 297 306 316 324 320 321 328 329 331
62 62 60 65 66 66 62 55 55 54 43 32 15 8 11 22 15 359 350 341 333 330 330 321 317 315 308 295 296 296 290 285 279 263 267 285 300 311 315 330 332 326 324
59 61 57 57 63 62 56 51 52 47 36 23 13 7 1 356 352 348 342 335 334 336 342 339 328 327 333 328 309 278 266 263 255 243 242 257 276 296 303 322 325 324 336
61 65 67 62 57 57 58 51 43 32 23 9 1 354 345 342 342 338 336 333 332 336 338 336 329 321 327 331 318 293 275 267 256 239 224 224 238 263 274 299 312 314 316
59 63 68 67 60 53 46 39 26 13 3 354 349 345 337 334 332 331 330 329 326 327 333 338 341 333 326 321 314 299 286 278 267 251 224 215 213 219 228 253 278 297 309
57 54 54 54 51 44 33 14 357 348 341 337 333 328 325 326 326 326 327 327 327 325 327 334 333 330 324 320 316 310 300 288 269 254 233 211 206 214 217 233 237 241 238
Height
1446 1447 1447 1447 1447 1447 1447 1447 1447 1447 1446 1445 1445 1444 1444 1443 1442 1441 1441 1440 1440 1439 1439 1439 1439 1439 1439 1439 1439 1439 1438 1437 1435 1432 1433 1432 1430 1428 1427 1425 1423 1421 1418
1443 1444 1444 1444 1444 1444 1444 1444 1444 1443 1443 1443 1442 1442 1441 1440 1439 1438 1438 1437 1436 1436 1436 1436 1436 1436 1435 1435 1435 1435 1435 1434 1433 1430 1429 1428 1427 1426 1424 1422 1420 1418 1415
1441 1441 1441 1441 1441 1441 1441 1441 1440 1440 1440 1440 1439 1439 1438 1438 1437 1436 1435 1434 1434 1434 1433 1433 1433 1433 1432 1433 1432 1432 1432 1431 1431 1428 1426 1425 1424 1423 1421 1419 1418 1415 1413
1438 1438 1438 1438 1438 1438 1438 1438 1438 1437 1437 1437 1437 1436 1436 1435 1434 1433 1433 1432 1432 1431 1431 1431 1431 1431 1430 1430 1430 1430 1430 1429 1428 1427 1425 1423 1422 1421 1420 1418 1415 1413 1411
1435 1435 1435 1436 1436 1436 1436 1435 1435 1435 1435 1434 1434 1434 1433 1433 1432 1431 1430 1430 1429 1429 1429 1429 1429 1428 1428 1429 1429 1428 1428 1427 1426 1425 1423 1421 1420 1419 1418 1416 1414 1411 1409
1432 1433 1433 1433 1434 1434 1433 1433 1433 1433 1432 1432 1432 1431 1431 1430 1430 1429 1429 1428 1427 1427 1427 1427 1427 1427 1427 1427 1427 1427 1427 1426 1424 1423 1422 1420 1419 1418 1417 1415 1413 1410 1407
1430 1430 1431 1431 1431 1431 1431 1431 1431 1430 1430 1430 1429 1429 1428 1428 1428 1427 1427 1426 1426 1426 1425 1425 1425 1425 1425 1425 1425 1425 1424 1424 1424 1423 1421 1419 1418 1417 1416 1414 1412 1410 1407
1428 1428 1429 1429 1429 1429 1429 1429 1429 1429 1429 1428 1428 1427 1427 1426 1426 1426 1426 1425 1425 1425 1425 1424 1424 1424 1424 1424 1423 1423 1423 1422 1422 1421 1420 1419 1418 1416 1415 1414 1411 1408 1406
1426 1426 1426 1427 1427 1427 1427 1427 1427 1427 1427 1426 1426 1426 1425 1425 1425 1425 1424 1424 1424 1424 1424 1424 1423 1423 1423 1423 1423 1422 1421 1421 1420 1420 1419 1418 1416 1415 1414 1412 1410 1408 1405
1424 1424 1425 1425 1425 1425 1426 1426 1426 1426 1425 1425 1425 1425 1424 1424 1424 1424 1424 1423 1422 1422 1423 1423 1423 1423 1423 1423 1422 1421 1420 1419 1419 1418 1417 1416 1415 1414 1413 1412 1410 1407 1405
1422 1423 1423 1423 1424 1424 1424 1425 1425 1424 1424 1424 1424 1424 1424 1423 1423 1423 1422 1422 1422 1422 1422 1422 1422 1422 1422 1422 1422 1421 1420 1419 1418 1417 1416 1415 1414 1413 1412 1410 1409 1407 1405
1421 1421 1421 1421 1422 1422 1423 1423 1423 1423 1423 1422 1422 1423 1423 1422 1422 1422 1422 1422 1422 1422 1422 1422 1422 1422 1422 1421 1421 1420 1420 1419 1418 1416 1415 1414 1413 1412 1411 1410 1408 1406 1404
1420 1420 1420 1420 1421 1421 1421 1421 1421 1422 1421 1421 1421 1421 1421 1422 1422 1422 1422 1422 1422 1422 1422 1422 1422 1422 1421 1421 1421 1420 1419 1418 1417 1416 1414 1414 1413 1412 1410 1409 1407 1406 1404
1419 1419 1419 1419 1419 1420 1420 1420 1420 1420 1420 1421 1421 1421 1421 1421 1421 1421 1421 1421 1421 1421 1421 1422 1422 1421 1421 1421 1420 1419 1418 1418 1417 1415 1414 1413 1412 1411 1410 1408 1406 1405 1403
1418 1418 1418 1418 1418 1419 1419 1419 1419 1420 1420 1420 1420 1420 1420 1421 1421 1421 1421 1421 1421 1421 1421 1421 1421 1420 1420 1420 1419 1418 1418 1417 1416 1415 1414 1413 1412 1411 1409 1408 1406 1404 1402
1417 1417 1417 1418 1418 1418 1418 1419 1419 1420 1420 1421 1421 1421 1421 1421 1421 1421 1421 1421 1421 1421 1421 1420 1420 1420 1420 1419 1418 1418 1417 1417 1416 1415 1414 1413 1412 1410 1409 1407 1406 1404 1402
1416 1417 1417 1417 1417 1417 1418 1418 1419 1420 1421 1421 1421 1421 1421 1421 1421 1421 1421 1421 1421 1421 1420 1420 1420 1420 1419 1419 1418 1417 1417 1416 1415 1414 1413 1412 1411 1410 1409 1407 1405 1404 1402
1416 1417 1417 1417 1417 1418 1418 1418 1418 1419 1420 1420 1421 1421 1421 1421 1421 1421 1421 1421 1421 1420 1420 1420 1419 1419 1419 1418 1418 1417 1416 1416 1415 1414 1413 1412 1411 1409 1408 1407 1405 1404 1402
1416 1417 1417 1417 1417 1418 1418 1418 1419 1419 1420 1420 1421 1421 1421 1421 1421 1421 1421 1420 1420 1419 1419 1419 1419 1418 1418 1417 1417 1416 1415 1415 1414 1413 1412 1411 1410 1409 1408 1407 1405 1404 1403
1416 1417 1417 1417 1417 1418 1418 1419 1419 1420 1420 1420 1420 1420 1420 1420 1420 1420 1420 1419 1419 1419 1418 1418 1418 1417 1417 1416 1415 1415 1414 1413 1412 1412 1411 1410 1409 1408 1407 1406 1405 1404 1403
1416 1417 1417 1417 1417 1418 1418 1419 1419 1420 1420 1420 1420 1421 1420 1420 1419 1419 1419 1418 1418 1417 1417 1416 1416 1415 1415 1414 1414 1413 1412 1412 1411 1410 1409 1409 1408 1407 1406 1405 1404 1403 1402
1416 1416 1417 1417 1417 1418 1418 1419 1419 1419 1420 1420 1420 1420 1420 1419 1419 1418 1418 1417 1416 1416 1415 1415 1414 1413 1413 1412 1411 1411 1410 1410 1409 1409 1408 1407 1407 1406 1405 1404 1404 1403 1402
1416 1416 1417 1417 1417 1418 1418 1419 1419 1419 1419 1419 1419 1419 1418 1418 1417 1417 1416 1416 1415 1414 1413 1412 1412 1411 1411 1410 1409 1409 1408 1407 1407 1407 1406 1406 1405 1404 1404 1403 1403 1402 1401
1416 1416 1416 1417 1417 1418 1418 1418 1418 1418 1418 1418 1417 1417 1417 1416 1416 1415 1414 1413 1413 1412 1411 1410 1409 1409 1408 1407 1407 1406 1406 1405 1405 1405 1404 1404 1403 1403 1403 1402 1401 1401 1401
1415 1415 1415 1416 1416 1417 1417 1417 1417 1417 1417 1416 1416 1416 1415 1414 1414 1413 1412 1411 1410 1409 1409 1408 1407 1406 1405 1405 1404 1404 1403 1403 1403 1403 1402 1402 1401 1401 1401 1401 1400 1400 1400
1414 1414 1415 1415 1415 1415 1415 1415 1415 1415 1415 1415 1414 1414 1413 1412 1411 1411 1410 1409 1408 1407 1406 1405 1404 1404 1403 1402 1401 1401 1401 1400 1400 1400 1400 1400 1400 1399 1399 1399 1399 1399 1399